Hereford, TX

9:51 AM CDT on August 26, 2016 (GMT -0500)
Hereford Municipal

Weather History for KHRX - September, 2013

Change the Weather History Date:

Wednesday, September 11, 2013

  Actual Average (KAMA) Record (KAMA)
Temperature  
Mean Temperature 72 °F 71 °F  
Max Temperature 79 °F 84 °F 101 °F (1910)
Min Temperature 66 °F 58 °F 37 °F (1898)
Degree Days  
Heating Degree Days 0 1  
Month to date heating degree days 2  
Since 1 July heating degree days 3  
Cooling Degree Days 8 7  
Month to date cooling degree days 92  
Year to date cooling degree days 1284  
Growing Degree Days 22 (Base 50)    
Moisture  
Dew Point 61 °F    
Average Humidity 66    
Maximum Humidity 83    
Minimum Humidity 50    
Precipitation  
Precipitation 0.00 in 0.07 in 1.53 in (1985)
Month to date precipitation 0.75  
Year to date precipitation 16.02  
Snow  
Snow 0.00 in 0.00 in 0.00 in ()
Month to date snowfall 0.0  
Since 1 July snowfall 0.0  
Since 1 September snowfall 0.0  
Snow Depth -    
Sea Level Pressure  
Sea Level Pressure 30.18 in    
Wind  
Wind Speed 10 mph (SSE)    
Max Wind Speed 18 mph    
Max Gust Speed 24 mph    
Visibility 10 miles    
Events      
T = Trace of Precipitation, MM = Missing Value Source: NWS Daily Summary

Daily Weather History Graph

Daily Weather History Graph

Search for Another Location

Airport or City:

Trip Planner

Search our weather history database for the weather conditions in past years. The results will help you decide how hot, cold, wet, or windy it might be!

Date:

Astronomy

Sep. 11, 2013 Rise Set
Actual Time 7:29 AM CDT 8:01 PM CDT
Civil Twilight 7:04 AM CDT 8:26 PM CDT
Nautical Twilight 6:34 AM CDT 8:56 PM CDT
Astronomical Twilight 6:03 AM CDT 9:27 PM CDT
Moon 1:44 PM CDT (9/11) No Moon Set
Length of Visible Light 13h 22m
Length of Day
12h 31m
Waxing Crescent, 39% of the Moon is Illuminated
Sep 11
Waxing Crescent
Sep 12
First Quarter
Sep 19
Full
Sep 26
Last Quarter
Oct 4
New

Hourly Weather History & Observations

Time (CDT) Temp. Dew Point Humidity Pressure Visibility Wind Dir Wind Speed Gust Speed Precip Events Conditions
12:15 AM 71.8 °F 61.9 °F 71% 30.17 in 10.0 mi SSE 13.8 mph - N/A   Clear
12:35 AM 71.6 °F 61.7 °F 71% 30.17 in 10.0 mi SSE 15.0 mph - N/A   Clear
12:55 AM 71.6 °F 61.7 °F 71% 30.17 in 10.0 mi SSE 12.7 mph 18.4 mph N/A   Clear
1:15 AM 71.2 °F 61.9 °F 72% 30.17 in 10.0 mi SSE 10.4 mph - N/A   Clear
1:35 AM 70.9 °F 61.7 °F 73% 30.17 in 10.0 mi SSE 13.8 mph 18.4 mph N/A   Clear
1:55 AM 70.3 °F 61.7 °F 74% 30.17 in 10.0 mi SSE 11.5 mph - N/A   Clear
2:15 AM 69.6 °F 61.7 °F 76% 30.17 in 10.0 mi SSE 10.4 mph - N/A   Clear
2:35 AM 69.1 °F 61.7 °F 77% 30.17 in 10.0 mi SSE 10.4 mph - N/A   Clear
2:55 AM 68.5 °F 61.7 °F 79% 30.17 in 10.0 mi SE 8.1 mph - N/A   Clear
3:15 AM 68.4 °F 61.3 °F 78% 30.17 in 10.0 mi SSE 9.2 mph - N/A   Clear
3:35 AM 68.0 °F 61.2 °F 79% 30.17 in 10.0 mi South 8.1 mph - N/A   Clear
3:55 AM 67.8 °F 61.0 °F 79% 30.17 in 10.0 mi SSE 8.1 mph - N/A   Scattered Clouds
4:15 AM 68.4 °F 61.2 °F 78% 30.17 in 10.0 mi SSE 6.9 mph - N/A   Mostly Cloudy
4:35 AM 68.0 °F 61.0 °F 78% 30.16 in 10.0 mi SE 4.6 mph - N/A   Scattered Clouds
4:55 AM 67.5 °F 61.0 °F 80% 30.16 in 10.0 mi SE 5.8 mph - N/A   Clear
5:15 AM 67.5 °F 61.0 °F 80% 30.16 in 10.0 mi SSE 5.8 mph - N/A   Scattered Clouds
5:35 AM 67.5 °F 61.0 °F 80% 30.17 in 10.0 mi SE 5.8 mph - N/A   Mostly Cloudy
5:55 AM 67.3 °F 61.0 °F 80% 30.17 in 10.0 mi SE 4.6 mph - N/A   Overcast
6:15 AM 67.1 °F 61.2 °F 81% 30.17 in 10.0 mi SE 6.9 mph - N/A   Mostly Cloudy
6:35 AM 67.1 °F 61.2 °F 81% 30.18 in 10.0 mi SE 5.8 mph - N/A   Scattered Clouds
6:55 AM 66.6 °F 61.2 °F 83% 30.19 in 10.0 mi ESE 4.6 mph - N/A   Mostly Cloudy
7:15 AM 67.1 °F 61.7 °F 83% 30.19 in 10.0 mi ESE 6.9 mph - N/A   Overcast
7:35 AM 67.5 °F 61.9 °F 82% 30.19 in 10.0 mi SE 8.1 mph - N/A   Overcast
7:55 AM 68.2 °F 62.4 °F 82% 30.19 in 10.0 mi SE 10.4 mph - N/A   Overcast
8:15 AM 68.9 °F 62.6 °F 80% 30.20 in 10.0 mi SSE 10.4 mph - N/A   Overcast
8:35 AM 68.9 °F 62.6 °F 80% 30.20 in 10.0 mi SSE 10.4 mph 17.3 mph N/A   Overcast
8:55 AM 69.1 °F 62.6 °F 80% 30.21 in 10.0 mi SSE 12.7 mph - N/A   Overcast
9:15 AM 69.1 °F 62.2 °F 79% 30.21 in 10.0 mi SSE 13.8 mph 17.3 mph N/A   Overcast
9:35 AM 69.4 °F 62.2 °F 78% 30.22 in 10.0 mi SSE 15.0 mph - N/A   Overcast
9:55 AM 70.2 °F 62.2 °F 76% 30.22 in 10.0 mi SSE 13.8 mph 19.6 mph N/A   Overcast
10:15 AM 70.7 °F 62.2 °F 75% 30.22 in 10.0 mi SSE 15.0 mph - N/A   Overcast
10:35 AM 72.0 °F 62.1 °F 71% 30.22 in 10.0 mi SSE 11.5 mph - N/A   Overcast
10:55 AM 72.5 °F 62.1 °F 70% 30.22 in 10.0 mi SSE 12.7 mph - N/A   Mostly Cloudy
11:15 AM 74.5 °F 61.9 °F 65% 30.22 in 10.0 mi SSE 12.7 mph - N/A   Mostly Cloudy
11:35 AM 75.4 °F 61.7 °F 62% 30.22 in 10.0 mi SSE 13.8 mph 17.3 mph N/A   Mostly Cloudy
11:55 AM 76.3 °F 61.0 °F 59% 30.22 in 10.0 mi SSE 16.1 mph 19.6 mph N/A   Overcast
12:15 PM 75.9 °F 61.2 °F 60% 30.21 in 10.0 mi SSE 11.5 mph 18.4 mph N/A   Mostly Cloudy
12:35 PM 75.9 °F 61.2 °F 60% 30.22 in 10.0 mi South 18.4 mph 24.2 mph N/A   Overcast
12:55 PM 76.3 °F 60.1 °F 57% 30.22 in 10.0 mi SSE 12.7 mph 21.9 mph N/A   Overcast
1:15 PM 77.0 °F 60.1 °F 56% 30.22 in 10.0 mi South 13.8 mph 19.6 mph N/A   Mostly Cloudy
1:35 PM 76.8 °F 60.3 °F 56% 30.21 in 10.0 mi SSE 15.0 mph - N/A   Mostly Cloudy
1:55 PM 77.0 °F 59.9 °F 55% 30.20 in 10.0 mi South 11.5 mph - N/A   Mostly Cloudy
2:15 PM 77.7 °F 59.9 °F 54% 30.19 in 10.0 mi SSE 17.3 mph 20.7 mph N/A   Overcast
2:35 PM 78.8 °F 59.2 °F 51% 30.18 in 10.0 mi SSE 16.1 mph 21.9 mph N/A   Mostly Cloudy
2:55 PM 78.3 °F 59.2 °F 52% 30.18 in 10.0 mi SSE 15.0 mph 23.0 mph N/A   Scattered Clouds
3:15 PM 78.4 °F 59.2 °F 51% 30.18 in 10.0 mi South 13.8 mph 20.7 mph N/A   Scattered Clouds
3:35 PM 78.8 °F 59.0 °F 51% 30.17 in 10.0 mi South 15.0 mph 23.0 mph N/A   Scattered Clouds
3:55 PM 79.3 °F 59.5 °F 51% 30.17 in 10.0 mi SSE 15.0 mph 21.9 mph N/A   Scattered Clouds
4:15 PM 78.8 °F 59.2 °F 51% 30.17 in 10.0 mi South 16.1 mph 19.6 mph N/A   Mostly Cloudy
4:35 PM 79.3 °F 59.2 °F 50% 30.17 in 10.0 mi SSE 12.7 mph 20.7 mph N/A   Scattered Clouds
4:55 PM 79.2 °F 59.0 °F 50% 30.16 in 10.0 mi South 13.8 mph - N/A   Scattered Clouds
5:15 PM 78.8 °F 59.2 °F 51% 30.16 in 10.0 mi South 12.7 mph 18.4 mph N/A   Mostly Cloudy
5:35 PM 78.8 °F 59.0 °F 51% 30.16 in 10.0 mi South 13.8 mph 17.3 mph N/A   Mostly Cloudy
5:55 PM 79.3 °F 59.0 °F 50% 30.15 in 10.0 mi South 10.4 mph - N/A   Scattered Clouds
6:15 PM 78.8 °F 59.0 °F 51% 30.15 in 10.0 mi South 10.4 mph - N/A   Scattered Clouds
6:35 PM 78.8 °F 59.0 °F 51% 30.15 in 10.0 mi SE 9.2 mph - N/A   Scattered Clouds
6:55 PM 78.1 °F 59.2 °F 52% 30.16 in 10.0 mi South 9.2 mph - N/A   Scattered Clouds
7:15 PM 77.9 °F 59.5 °F 53% 30.16 in 10.0 mi South 10.4 mph - N/A   Mostly Cloudy
7:35 PM 77.4 °F 59.4 °F 54% 30.16 in 10.0 mi South 9.2 mph - N/A   Mostly Cloudy
7:55 PM 76.1 °F 59.9 °F 57% 30.16 in 10.0 mi South 5.8 mph - N/A   Scattered Clouds
8:15 PM 75.4 °F 59.9 °F 58% 30.17 in 10.0 mi SSW 4.6 mph - N/A   Scattered Clouds
8:35 PM 75.4 °F 59.9 °F 58% 30.17 in 10.0 mi SSW 3.5 mph - N/A   Mostly Cloudy
8:55 PM 75.2 °F 60.3 °F 60% 30.18 in 5.0 mi SW 6.9 mph - N/A   Haze
9:15 PM 74.7 °F 60.8 °F 62% 30.19 in 10.0 mi Calm Calm - N/A   Mostly Cloudy
9:35 PM 74.1 °F 60.8 °F 63% 30.19 in 7.0 mi Calm Calm - N/A   Mostly Cloudy
9:55 PM 73.4 °F 60.8 °F 65% 30.20 in 10.0 mi Calm Calm - N/A   Mostly Cloudy
10:15 PM 73.4 °F 60.8 °F 65% 30.20 in 10.0 mi Calm Calm - N/A   Mostly Cloudy
10:35 PM 72.9 °F 60.4 °F 65% 30.20 in 10.0 mi Calm Calm - N/A   Mostly Cloudy
10:55 PM 72.9 °F 59.5 °F 63% 30.20 in 10.0 mi Calm Calm - N/A   Mostly Cloudy
11:15 PM 73.4 °F 59.4 °F 61% 30.20 in 10.0 mi Calm Calm - N/A   Overcast
11:35 PM 72.5 °F 61.2 °F 67% 30.20 in 10.0 mi Calm Calm - N/A   Light Drizzle
11:55 PM 71.8 °F 61.7 °F 70% 30.19 in 10.0 mi Calm Calm - N/A   Overcast